Find Starlink 11253

NORAD ID: 60935 Int'l Des: 2024-155 Owner: SPXS Country: US Constellation: starlink operational
別名: STARLINK-11253 [DTC] celestrak
LEOCIRCULAR

現在のビュー

3D地球を読み込み中...

About Starlink 11253

Starlink 11253 (NORAD 60935) is a starlink constellation satellite (v2 mini d2c) launched Aug 31, 2024 by SPXS of US. It operates in LEO, CIRCULAR orbit with a mass of 960.00 kg.

次回通過

Passes for default location (London). Set your location on the main map for personalized predictions.

高度履歴

Loading altitude history...

軌道要素

1 60935U 24155M 26238.14805149 .00000434 00000-0 84333-5 0 9990
2 60935 53.1585 226.1816 0000828 88.3280 271.7833 15.69708938115010
Epoch: Aug 26, 2026 • Age: 6 hours

現在のステータス

高度 365.6 km
遠地点 / 近地点 N/A
速度 7.70 km/s
衛星直下点 52.78°N, 178.64°E
打ち上げ日 Aug 31, 2024
運用期間 1.9 years
タイプ internet

技術仕様

分類 Payload
質量 960.00 kg
乾燥質量 910.00 kg
総質量 960.00 kg
長さ 0.30 m
直径 4.10 m
スパン 29.00 m
形状 Box + pan
製造者 SPXS
バスタイプ Starlink V2MD
フェーズステータス In Orbit
所有者/国 SPXS/US

Most Searched